Sigfox identifier Datetime Temperature Humidity SNR
0038AED4 2018-10-09 08:37:05 21.4 37 13.6
0038AED4 2018-10-09 07:30:33 21.4 37 13.5
0038AED4 2018-10-09 06:23:59 21.4 37 13.1
0038AED4 2018-10-09 05:17:23 21.4 37 12.8
0038AED4 2018-10-09 01:57:48 21.4 37 12.6
0038AED4 2018-10-09 00:51:12 21.4 37 12.5
0038AED4 2018-10-08 23:44:38 21.4 37 11.8
0038AED4 2018-10-08 22:38:08 21.4 37 11.8
0038AED4 2018-10-08 21:31:37 21.4 37 11.7
0038AED4 2018-10-08 20:25:05 21.4 37 17.3
0038AED4 2018-10-08 19:18:35 21.4 37 17.3
0038AED4 2018-10-08 18:12:00 21.2 37 17.3
0038AED4 2018-10-08 17:05:33 21.2 37 17.3
0038AED4 2018-10-08 15:58:56 21.2 36 17.3
0038AED4 2018-10-08 14:52:26 21.1 37 17.3
0038AED4 2018-10-08 13:45:50 21.1 37 17.3
0038AED4 2018-10-08 12:39:19 21 37 17.1
0038AED4 2018-10-08 09:19:34 21 37 17
0038AED4 2018-10-08 08:13:04 21 37 16.9
0038AED4 2018-10-08 07:06:31 21 37 16.9
0038AED4 2018-10-08 05:59:58 21 37 16.9
0038AED4 2018-10-08 03:46:52 21 37 19.5
0038AED4 2018-10-08 02:40:20 21.1 38 19.5
0038AED4 2018-10-08 01:33:45 21.1 38 19.5
0038AED4 2018-10-08 00:27:17 21.2 38 19.5
0038AED4 2018-10-07 23:20:44 21.2 38 19.5
0038AED4 2018-10-07 22:14:08 21.2 38 19.5
0038AED4 2018-10-07 21:07:33 21.2 38 19.5
0038AED4 2018-10-07 20:01:01 21.2 38 19.5
0038AED4 2018-10-07 18:54:29 21.2 38 19.5
0038AED4 2018-10-07 17:47:49 21.2 38 19.5
0038AED4 2018-10-07 16:41:10 21.2 38 19.6
0038AED4 2018-10-07 15:34:35 21.2 38 19.7
0038AED4 2018-10-07 14:27:53 21.2 38 19.7
0038AED4 2018-10-07 13:21:17 21.2 38 17.3
0038AED4 2018-10-07 12:14:36 21.2 38 17.3
0038AED4 2018-10-07 11:07:58 21.2 38 17.3
0038AED4 2018-10-07 10:01:27 21.2 38 17.4
0038AED4 2018-10-07 08:54:54 21.2 38 17.4
0038AED4 2018-10-07 07:48:15 21.2 38 17.4
0038AED4 2018-10-07 06:41:37 21.2 38 17.4
0038AED4 2018-10-07 05:35:04 21.3 39 17.4
0038AED4 2018-10-07 04:28:36 21.3 39 17.4
0038AED4 2018-10-07 03:22:03 21.4 39 17.4
0038AED4 2018-10-07 02:15:34 21.4 39 17.4
0038AED4 2018-10-07 01:08:59 21.4 39 17.5
0038AED4 2018-10-07 00:02:24 21.4 39 12
0038AED4 2018-10-06 22:55:52 21.4 39 11.9
0038AED4 2018-10-06 21:49:19 21.4 39 12
0038AED4 2018-10-06 20:42:51 21.4 39 12.2
0038AED4 2018-10-06 19:36:17 21.4 39 12.3
0038AED4 2018-10-06 18:29:45 21.4 39 12.2
0038AED4 2018-10-06 17:23:10 21.4 39 12
0038AED4 2018-10-06 15:10:05 21.4 39 13
0038AED4 2018-10-06 14:03:34 21.4 39 13.5
0038AED4 2018-10-06 12:56:59 21.4 39 14.1
0038AED4 2018-10-06 11:50:26 21.4 39 14.2
0038AED4 2018-10-06 10:43:57 21.4 39 14.4
0038AED4 2018-10-06 09:37:22 21.4 39 14.2
0038AED4 2018-10-06 08:30:43 21.4 39 14.5
0038AED4 2018-10-06 07:24:04 21.6 39 14.9
0038AED4 2018-10-06 06:17:25 21.6 39 15.2
0038AED4 2018-10-06 05:10:55 21.6 39 15.3
0038AED4 2018-10-06 04:04:14 21.6 39 15.5
0038AED4 2018-10-06 02:57:38 21.6 39 15.6
0038AED4 2018-10-06 01:51:03 21.6 39 15.8
0038AED4 2018-10-06 00:44:26 21.6 39 15.8
0038AED4 2018-10-05 23:37:50 21.6 39 15.9
0038AED4 2018-10-05 22:31:15 21.7 39 15.9
0038AED4 2018-10-05 21:24:43 21.6 39 16.3
0038AED4 2018-10-05 20:18:09 21.6 38 16.3
0038AED4 2018-10-05 19:11:40 21.6 38 16.3
0038AED4 2018-10-05 18:05:07 21.6 38 16.6
0038AED4 2018-10-05 16:58:32 21.6 38 16.6
0038AED4 2018-10-05 15:52:00 21.6 38 16.5
0038AED4 2018-10-05 14:45:26 21.5 37 16.5
0038AED4 2018-10-05 13:38:55 21.4 37 16.5
0038AED4 2018-10-05 12:32:21 21.4 36 16.7
0038AED4 2018-10-05 11:25:47 21.2 35 16.6
0038AED4 2018-10-05 10:19:14 21.2 35 16.3
0038AED4 2018-10-05 09:12:41 21.1 34 15.9
0038AED4 2018-10-05 08:06:07 21.1 34 15.8
0038AED4 2018-10-05 06:59:35 21.1 34 15.5
0038AED4 2018-10-05 05:53:00 21.1 34 15.6
0038AED4 2018-10-05 04:46:29 21.2 34 16.1
0038AED4 2018-10-05 03:39:52 21.2 34 15.8
0038AED4 2018-10-05 02:33:20 21.2 35 15.8
0038AED4 2018-10-05 01:26:48 21.2 35 15.8
0038AED4 2018-10-05 00:20:10 21.2 35 16
0038AED4 2018-10-04 23:13:35 21.2 35 16.4
0038AED4 2018-10-04 22:06:59 21.2 35 16.4
0038AED4 2018-10-04 21:00:19 21.1 35 16.5
0038AED4 2018-10-04 19:53:43 21 36 16.6
0038AED4 2018-10-04 18:47:07 21 36 16.7
0038AED4 2018-10-04 17:40:32 21 36 16.5
0038AED4 2018-10-04 16:33:55 20.7 36 16.6
0038AED4 2018-10-04 15:27:18 20.6 36 16.8
0038AED4 2018-10-04 14:20:42 20.5 37 16.6
0038AED4 2018-10-04 13:14:10 20.5 37 16.7
0038AED4 2018-10-04 12:07:32 20.3 38 16.9
0038AED4 2018-10-04 09:54:23 20.3 39 17.2
0038AED4 2018-10-04 08:47:45 20.3 39 17.4
0038AED4 2018-10-04 07:41:11 20.3 40 17.4
0038AED4 2018-10-04 06:34:34 20.3 41 17.2
0038AED4 2018-10-04 05:27:53 20.3 41 17.5
0038AED4 2018-10-04 04:21:14 20.3 42 17.8
0038AED4 2018-10-04 03:14:35 20.3 42 18.1
0038AED4 2018-10-04 02:07:53 20.4 42 18.4
0038AED4 2018-10-04 01:01:10 20.5 43 18.7
0038AED4 2018-10-03 23:54:31 20.5 43 18
0038AED4 2018-10-03 22:47:54 20.5 43 18.6
0038AED4 2018-10-03 21:41:15 20.5 43 18.6
0038AED4 2018-10-03 20:34:35 20.5 44 18.7
0038AED4 2018-10-03 19:27:58 20.5 44 18.3
0038AED4 2018-10-03 18:21:20 20.5 44 16.6
0038AED4 2018-10-03 17:14:39 20.7 45 16.8
0038AED4 2018-10-03 16:07:59 20.7 45 0